STARLINK-34223, 64336

Orbit data source: Space-Track

STARLINK-34223, 64336 is a payload satellite owned by SpaceX/Seattle (US) in LEO that was launched on Tue, 10 Jun 2025 UTC via an FALCON 9 launch vehicle from the Air Force Eastern Test Range (AFETR). Payload-class satellites include a variety of spacecraft equipped with specific instruments for various scientific and technological missions. These include communications satellites like Starlink; space stations such as the ISS; scientific satellites like the Hubble; Earth observation satellites from companies like Planet Labs, Umbra, and HawkEye 360; GPS; miniature CubeSats for education and research; and military/defense satellites.

Loading next visibility...
Identifier
64336, 2025-124V
Orbit
LEO
Last TLE update
9 hours ago
Origin
Manufacturer
SpaceX/Seattle
Mission
Operational spacecraft
Bus & Motor
STARLINK V2MO, Unknown motor
Mass
575 kg wet, ~530 kg dry
Launch date (UTC)
2025-06-10 (3 weeks ago)
Launch vehicle
FALCON 9
Launch site
Air Force Eastern Test Range (AFETR)
Object type
Payload
Rocket body
Debris
Shape & HBR
Unknown
Radar Cross Section
Large (>1 m²)

Expand to show TLE details & history

TLE from 9 hours ago
0 STARLINK-34223
1 64336U 25124V   25182.16668981  .00086062  00000-0  14601-2 0  9995
2 64336  43.0001 107.1236 0001487 276.2407 176.0278 15.50513633  4377
Epoch: 2025-07-01T04:00Z
TLE epoch observation values (Epoch: 2025-07-01T04:00:01.999Z)
Latitude
43.11778°
Longitude
-139.24555°
Altitude
419.359 km
Speed
7.665 km/s
True Right ascension
13h 20m 54s
True Declination
42° 56' 16"
Sunlit
Object was in daylight at epoch
Visualization orbit readout
Latitude
40.55396°
Longitude
-120.4847°
Altitude
418.59 km
Speed
7.665 km/s
Apparent Right ascension
13h 49m 06s
Apparent Declination
1° 53' 50"
Sunlit
Object is in daylight
Visualization observer readout
Local Sidereal Time
00:59:36
Azimuth
341.809° N
Elevation
-46.678°
Doppler factor
1
Orbital elements
Apogee altitude
418.2 km
Perigee altitude
416.179 km
Semi-major axis
6,795.327 km
Eccentricity
0.00015
Inclination
43.0001°
RAAN
107.1236°
Arg. of periapsis
276.2407°
True anomaly
Unknown
Mean anomaly
176.0278°
Eccentric anomaly
Unknown
Mean motion
3.87461 °/min
Orbital period
92.91 mins
BSTAR
0.0014601
Loading maneuver chart data...
Loading SW <> Apogee altitude chart data...
Loading historical data...
Loading historical data...
Loading historical data...
Loading historical data...
Loading historical data...
Loading historical data...
Loading historical data...

STARLINK-34223 Visibility forecast

Observer location: undefined°, undefined°

Span
Click to sort rows by Start time (UTC) header in descending order
Start Az.
Max El. time (UTC)
Max El. Az.
Max El.
End time (UTC)
End Az.
6 mins2025-07-01 22:21:40.617Z220.398° SW2025-07-01 22:24:40.617Z152.363° SSE31.342°2025-07-01 22:27:40.617Z83.336° E
4 mins2025-07-02 00:00:40.617Z278.835° WNW2025-07-02 00:01:40.617Z313.955° NW39.74°2025-07-02 00:04:40.617Z67.738° E
5 mins2025-07-02 01:37:40.617Z296.413° NW2025-07-02 01:39:40.617Z5.115° NNE37.601°2025-07-02 01:42:40.617Z82.237° E
4 mins2025-07-02 03:15:40.617Z275.538° WNW2025-07-02 03:17:40.617Z156.266° SSE38.838°2025-07-02 03:19:40.617Z123.927° SE
|